SCP
0 0 0 0 0 0 0 0 0 0 0 0 0 0 0 0 0 0 0 0 0 0 0 0 0 0 0 0 0 0 0 0 0 0 0 0 0 0 0 0 0 0 0 0
0 0 0 0 0 0 0 0 0 0 0 0 0 0 0 0 0 0 0 0 0 0 0 0 0 0 0 0 0 0 0 0 0 0 0 0 0 0 0 0 0 0 0 0
0 0 0 0 0 0 0 0 0 0 0 0 0 0 0 0 0 0 0 0 0 0 0 0 0 0 0 0 0 0 0 0 0 0 0 0 0 0 0 0 0 0 0 0
0 0 0 0 0 0 0 0 0 0 0 0 0 0 0 0 0 0 0 0 0 0 0 0 0 0 0 0 0 0 0 0 0 0 -0 0 0 0 0 0 0 0 -0 -0
0 0 0 0 0 0 0 0 0 0 0 0 0 0 0 0 0 0 0 0 0 0 0 0 0 0 0 0 0 0 0 0 0 0 0 0 0 -0 0 0 0 0 0 0
0 0 0 0 0 0 0 0 0 0 0 0 0 0 0 0 0 0 0 0 0 0 0 0 0 0 0 0 0 0 0 0 0 0 0 0 -0 0 0 0 0 0 0 -0
0 0 0 0 0 0 0 0 0 0 0 0 0 0 0 0 0 0 0 0 0 0 0 0 0 -0 0 -0 0 0 0 0 0 0 0 0 0 0 0 0 -0 -0 0 -0
0 0 0 0 0 0 0 0 0 0 0 0 0 0 0 0 0 0 0 0 0 0 0 0 0 0 0 0 0 0 -0 0 0 0 0 -0 -0 0 0 -0 -0 0 0 0
0 0 0 0 0 0 0 0 0 0 0 0 0 0 0 0 0 0 0 0 0 0 0 0 0 0 0 0 0 0 0 0 0 0 -0 -0 0 0 0 -0 0 0 0 0
0 0 0 0 0 0 0 0 0 0 0 0 0 0 0 0 0 0 0 0 0 0 0 0 0 0 0 0 0 0 0 0 0 -0 -0 -0 0 0 0 0 -0 -0 -0 -0
0 0 0 0 0 0 0 0 0 0 0 0 0 0 0 0 0 0 0 0 0 0 0 0 0 0 0 0 0 0 0 0 0 0 -0 -0 0 -0 -0 -0 0 0 0 0
0 0 0 0 0 0 0 0 0 0 0 0 0 0 -0 -0 0 0 0 0 0 0 0 0 0 0 0 0 0 0 0 0 0 0 -0 0 -0 -0 -0 -0 -0 0 0 0
0 0 0 -0 0 0 0 0 0 0 0 0 0 0 0 0 0 0 0 0 0 0 0 0 0 0 0 0 0 0 0 0 0 -0 -0 -0 -0 -0 0 0 0 0 0 0
0 0 -0 -0 0 0 0 0 0 0 0 0 0 0 0 0 0 0 0 0 0 0 0 0 0 0 0 0 0 0 0 0 0 -0 -0 0 -0 -0 0 0 -0 0 0 0
0 0 -0 -0 0 0 0 0 0 0 0 0 0 0 0 0 0 0 0 0 0 0 0 0 0 0 0 0 0 0 0 0 0 -0 -0 -0 -0 0 0 -0 -0 -0 0 0
0 -0 -0 0 0 0 0 0 0 0 0 0 0 0 0 0 0 0 0 0 0 0 0 0 0 0 0 0 0 -0 0 0 0 -0 -0 -0 -0 0 -0 -0 -0 -0 0 0
0 -0 0 0 0 0 0 0 0 0 0 0 0 0 0 0 0 0 0 0 0 0 0 0 0 -0 0 0 -0 -0 0 0 -0 -0 -0 -0 0 -0 -0 -0 -0 -0 -0 0
0 0 0 0 0 0 0 0 0 0 0 0 0 0 0 0 0 0 0 0 0 -0 -0 -0 -0 0 0 -0 -0 0 0 0 0 -0 -0 -0 -0 -0 0 0 -0 -0 -0 -0
0 0 -0 0 0 0 0 0 0 0 0 0 0 0 0 0 0 0 0 0 -0 0 -0 -0 -0 0 -0 -0 -0 0 0 0 -0 -0 -0 -0 -0 -0 0 0 0 -0 -0 -0
-0 0 0 0 0 0 0 0 0 0 0 0 0 0 0 0 0 0 0 0 0 0 -0 0 0 0 0 -0 0 0 0 0 -0 -0 -0 -0 -0 -0 -0 0 0 0 0 -0
0 0 0 0 0 0 0 0 0 0 0 -0 -0 -0 0 0 0 0 0 0 -0 0 -0 0 0 0 -0 0 0 0 0 0 0 -0 0 0 0 -0 -0 -0 -0 -0 0 0
0 0 0 0 0 0 0 0 0 -0 -0 -0 -0 -0 0 0 0 0 0 0 -0 -0 -0 0 0 0 0 0 0 0 0 0 0 0 0 0 0 -0 -0 -0 -0 -0 -0 0
0 0 0 0 0 -0 0 0 -0 -0 -0 -0 -0 0 0 0 0 0 0 0 -0 -0 -0 0 0 0 0 0 0 0 0 0 0 -0 0 0 0 -0 -0 -0 -0 -0 -0 -0
0 0 0 -0 0 -0 0 -0 -0 0 0 -0 -0 0 0 0 0 0 0 0 -0 -0 0 0 0 0 0 0 0 0 0 0 0 0 -0 -0 -0 -0 0 -0 -0 -0 0 -0
0 0 0 0 0 0 -0 -0 -0 -0 0 -0 0 0 0 0 0 0 0 -0 -0 0 0 0 0 0 0 0 0 0 0 0 0 0 -0 -0 -0 0 0 0 0 -0 0 -0
0 0 0 0 -0 -0 -0 -0 -0 -0 0 0 0 0 0 0 0 -0 -0 0 0 0 -0 -0 -0 -0 -0 -0 0 0 0 0 0 0 -0 -0 -0 0 0 0 0 0 -0 0
0 0 -0 -0 0 0 -0 -0 -0 0 0 0 0 -0 0 0 0 0 0 0 0 0 -0 0 0 0 0 0 0 0 0 0 0 -0 -0 -0 -0 0 0 -0 0 0 0 0
Wind_Speed_500mb
35 35 43 38 46 53 50 10 5 20 2 13 2 6 8 6 10 15 16 13 22 25 24 19 21 19 10 7 11 20 2 11 20 29 9 10 20 25 22 15 14 14 15 35
33 34 36 34 41 50 47 16 8 16 5 6 3 7 9 12 14 14 9 12 13 18 21 12 26 19 7 9 12 7 7 8 15 15 14 12 16 15 20 22 23 35 28 30
30 31 30 31 34 38 28 11 3 8 16 11 10 12 13 10 7 18 17 16 17 20 25 22 9 12 8 11 16 3 5 22 26 23 28 10 18 21 23 27 22 35 37 51
30 26 25 24 24 29 18 14 6 9 5 6 14 13 10 16 9 10 10 10 16 15 13 23 23 18 15 16 10 11 11 28 30 34 34 30 32 34 35 39 40 40 51 50
28 25 21 20 18 21 9 11 10 6 2 8 10 7 4 14 9 7 6 15 13 13 13 25 22 7 16 18 11 15 10 16 18 28 29 32 36 36 37 38 41 44 48 50
27 26 19 18 15 15 6 5 5 7 4 4 6 4 4 10 15 13 23 20 10 17 26 28 33 33 45 28 28 20 19 14 14 25 6 18 29 16 9 15 22 26 32 43
28 23 20 16 14 11 4 5 4 8 7 6 8 14 19 18 18 16 18 26 17 12 14 30 39 42 46 41 33 34 21 19 12 16 22 22 10 5 14 20 27 32 37 43
32 25 21 15 15 10 8 10 3 5 7 12 11 10 17 23 22 26 28 25 14 25 12 8 16 13 18 19 19 25 24 15 7 8 12 26 24 6 10 25 40 41 25 28
34 31 20 15 14 15 12 7 9 9 5 5 10 12 16 9 8 8 9 12 16 5 5 7 7 8 5 8 12 3 16 17 9 5 8 13 13 4 20 26 34 16 39 43
41 32 20 19 14 16 16 14 15 14 9 16 10 8 11 7 7 6 13 9 7 10 4 5 8 5 2 6 9 11 10 7 17 16 10 15 13 18 27 17 23 60 60 67
30 28 21 18 18 20 16 20 15 23 13 25 26 16 20 14 12 6 8 16 7 4 7 5 4 4 1 6 2 2 7 8 6 6 7 9 15 29 18 31 51 60 67 66
22 24 19 20 22 22 22 22 19 19 28 19 28 39 43 37 37 20 9 7 3 5 5 4 2 5 6 3 3 5 6 4 4 6 7 11 24 28 40 32 55 60 63 72
23 25 27 27 23 26 23 22 19 17 18 32 15 10 9 15 12 21 18 11 11 7 7 7 4 5 4 5 6 4 5 3 6 9 4 20 34 26 43 48 55 61 64 76
24 25 28 26 27 30 29 24 14 18 10 7 4 2 12 20 25 24 36 15 6 5 8 7 6 5 3 3 5 11 2 7 8 17 21 35 6 44 53 58 59 64 71 75
28 25 23 23 27 34 28 19 19 21 14 7 19 40 11 4 12 29 34 33 34 8 6 8 3 3 7 8 9 12 6 9 6 7 31 27 45 52 51 55 63 66 74 85
26 21 22 14 23 33 26 12 20 27 24 6 7 7 8 15 18 30 24 31 23 9 7 9 5 5 9 5 6 7 6 5 8 21 36 36 41 38 48 55 59 65 67 71
21 16 16 18 26 31 19 9 5 12 16 5 9 7 4 1 11 19 21 21 12 12 4 7 9 9 11 5 3 13 6 8 16 21 26 33 31 48 51 51 55 59 62 67
15 14 24 22 24 22 19 18 11 9 9 6 5 7 8 11 10 11 17 15 16 16 7 8 12 7 9 5 8 4 5 15 15 17 26 33 39 43 44 46 51 58 63 72
13 26 30 29 21 13 11 10 8 20 10 5 6 5 2 3 8 9 14 10 6 10 6 8 7 7 5 3 9 1 9 16 23 26 26 30 35 40 42 44 48 53 61 68
24 40 13 9 10 12 20 12 10 13 8 11 7 10 5 3 3 12 8 8 6 6 10 8 6 3 12 7 6 4 11 16 18 25 30 37 39 41 41 41 43 47 52 64
44 15 10 15 22 17 8 7 9 10 6 11 11 19 8 7 3 2 4 3 6 5 5 4 4 4 7 9 3 6 10 11 13 18 23 27 29 34 38 41 41 46 49 59
25 16 23 21 8 6 6 7 8 8 6 11 7 10 17 6 7 3 6 4 6 4 12 5 4 7 14 7 3 5 7 9 14 20 25 31 30 29 33 37 39 44 45 51
24 7 10 10 9 9 10 12 8 6 7 7 10 6 9 11 12 9 7 9 4 12 6 3 4 17 14 7 6 6 7 11 16 22 26 31 28 27 32 36 36 39 43 48
10 11 10 9 9 10 9 7 2 4 2 6 11 8 12 12 10 6 6 4 5 6 7 5 8 18 14 12 9 6 9 12 17 21 26 31 31 30 30 33 36 38 41 46
9 8 7 11 11 2 6 11 9 5 9 6 5 6 8 7 7 7 4 9 8 3 4 6 21 19 19 14 9 7 10 13 16 19 24 27 31 34 35 35 36 37 38 44
5 7 6 4 4 14 19 16 13 10 9 6 5 3 3 6 4 9 7 1 2 5 8 22 24 23 18 12 9 10 11 14 15 18 23 25 28 31 33 34 38 39 40 44
8 8 17 12 6 7 5 7 7 13 9 5 6 6 2 0 5 6 2 1 6 17 23 23 23 22 18 14 13 11 11 14 15 18 22 24 26 27 31 36 39 38 38 40
Wind_Direction_500mb
341 349 347 347 349 354 0 355 220 348 62 243 287 304 340 328 299 309 294 274 270 268 263 268 222 232 246 338 317 257 167 293 274 274 328 299 280 279 260 229 240 233 287 278
339 349 351 352 357 359 358 347 335 350 8 301 285 338 284 296 312 311 308 281 290 283 282 261 250 250 153 283 264 293 170 233 277 243 194 203 249 232 243 252 250 258 269 274
333 338 352 353 356 359 358 335 294 41 57 63 341 337 291 283 304 293 300 274 281 267 259 248 253 228 261 261 273 37 296 262 258 273 309 310 254 250 247 253 251 266 262 276
320 328 338 350 359 356 12 3 55 7 353 32 346 323 304 297 324 22 330 312 274 308 272 242 243 228 271 249 239 234 268 265 266 269 277 279 272 265 263 258 257 257 279 284
309 317 328 341 354 351 17 351 351 327 310 336 324 253 331 351 10 318 286 264 332 310 277 277 294 304 271 280 244 251 230 264 271 275 268 264 267 264 264 263 266 270 278 282
308 305 312 323 347 346 346 349 329 309 140 329 312 302 350 294 315 277 247 286 329 287 274 262 265 268 262 274 284 275 248 260 271 281 242 278 269 272 284 285 278 285 286 297
304 300 306 312 333 336 316 284 301 277 287 278 311 294 294 294 298 274 291 298 278 281 290 294 264 246 246 257 254 240 244 247 275 281 294 260 77 33 310 299 298 294 295 303
293 293 299 294 303 299 283 288 263 255 272 300 281 288 309 296 282 265 281 290 290 250 322 254 253 212 223 223 227 221 231 247 261 254 272 289 264 65 352 321 303 298 321 324
280 283 276 292 295 281 282 266 250 216 271 245 316 289 304 305 296 281 271 291 287 237 255 245 253 220 159 169 155 173 185 217 218 267 270 291 79 71 327 309 292 16 332 315
271 273 256 277 270 270 280 271 264 219 228 282 238 287 289 268 296 274 290 299 284 220 231 233 235 243 80 216 196 163 168 187 221 242 265 278 68 342 320 278 339 329 321 316
250 260 248 268 264 252 268 270 268 234 232 265 263 249 245 252 240 243 351 308 193 250 236 237 212 242 196 258 332 270 215 190 204 270 255 261 14 329 337 323 312 314 317 316
263 259 258 269 260 245 266 251 269 255 240 255 260 268 260 252 253 255 225 285 345 285 293 269 324 246 202 266 226 193 242 238 254 222 272 324 323 315 321 321 316 317 320 318
269 261 258 261 244 239 253 260 266 254 270 290 263 295 226 208 259 243 206 230 226 230 314 303 295 272 294 236 244 231 184 234 244 290 253 314 314 310 328 328 320 320 320 316
276 266 255 248 228 237 242 260 264 246 262 279 325 223 228 259 267 239 215 196 128 326 335 261 249 242 266 285 313 259 88 191 269 274 294 333 349 327 328 324 324 322 319 320
272 271 244 262 222 227 243 248 261 249 232 287 287 296 263 242 222 218 210 221 232 278 286 244 252 319 251 224 287 265 185 279 272 276 334 318 310 321 324 322 324 323 325 324
268 266 266 225 201 211 205 243 256 232 230 283 288 309 271 260 238 212 216 218 216 220 223 271 246 246 254 251 230 208 143 191 270 297 309 310 312 320 321 323 325 326 325 330
262 257 228 212 212 202 200 205 225 184 189 236 279 276 228 224 143 179 193 193 191 214 229 252 273 226 206 259 240 122 174 284 301 307 318 319 325 323 325 326 327 328 330 334
256 231 201 195 198 207 227 242 231 222 211 204 266 273 219 189 189 172 179 180 197 204 212 226 240 200 227 261 117 100 308 320 319 322 318 312 320 324 327 330 333 334 339 340
232 184 187 178 191 206 227 215 217 223 210 240 226 264 56 218 221 189 170 172 191 188 198 232 214 196 226 61 124 193 334 337 322 325 327 332 334 334 337 338 339 340 343 343
204 179 157 181 190 163 133 148 184 209 221 224 246 237 256 281 280 175 137 195 194 200 212 177 219 237 96 106 104 340 337 340 339 341 347 344 342 342 341 343 342 341 344 343
173 161 150 151 149 149 177 198 203 187 230 218 232 232 239 209 253 261 255 195 205 213 153 215 230 183 138 150 98 356 343 351 357 353 348 347 341 341 342 343 345 344 349 349
184 161 130 136 170 183 210 210 175 213 247 183 222 204 203 226 208 225 228 220 210 208 140 227 209 116 137 142 68 26 16 11 2 360 357 355 355 351 350 349 349 348 351 354
171 137 141 152 159 206 225 197 187 209 207 205 192 180 171 196 197 222 215 216 162 143 201 199 72 129 151 147 124 82 31 10 3 3 5 2 3 2 2 359 356 354 356 358
177 165 161 213 176 232 197 232 215 76 231 192 211 166 192 183 185 227 216 82 159 220 211 162 139 159 143 137 121 79 32 19 10 9 10 10 13 11 7 6 3 359 2 2
177 177 213 209 237 223 224 230 238 221 282 257 248 187 167 188 214 212 180 182 226 237 76 105 136 139 137 130 108 69 42 31 25 20 15 15 17 19 17 15 13 10 11 10
204 219 236 206 218 234 226 226 240 222 243 234 216 192 240 206 198 198 204 241 203 107 94 129 136 135 133 123 101 80 57 41 36 27 19 18 17 19 17 16 19 18 18 17
209 224 224 232 291 241 207 231 248 219 190 222 185 195 174 6 241 162 165 74 87 128 127 135 133 135 129 120 110 84 61 46 38 30 25 27 26 26 24 23 20 18 19 20
Wind_Speed_850mb
35 35 43 38 46 53 50 10 5 20 2 13 2 6 8 6 10 15 16 13 22 25 24 19 21 19 10 7 11 20 2 11 20 29 9 10 20 25 22 15 14 14 15 35
33 34 36 34 41 50 47 16 8 16 5 6 3 7 9 12 14 14 9 12 13 18 21 12 26 19 7 9 12 7 7 8 15 15 14 12 16 15 20 22 23 35 28 30
30 31 30 31 34 38 28 11 3 8 16 11 10 12 13 10 7 18 17 16 17 20 25 22 9 12 8 11 16 3 5 22 26 23 28 10 18 21 23 27 22 35 37 51
30 26 25 24 24 29 18 14 6 9 5 6 14 13 10 16 9 10 10 10 16 15 13 23 23 18 15 16 10 11 11 28 30 34 34 30 32 34 35 39 40 40 51 50
28 25 21 20 18 21 9 11 10 6 2 8 10 7 4 14 9 7 6 15 13 13 13 25 22 7 16 18 11 15 10 16 18 28 29 32 36 36 37 38 41 44 48 50
27 26 19 18 15 15 6 5 5 7 4 4 6 4 4 10 15 13 23 20 10 17 26 28 33 33 45 28 28 20 19 14 14 25 6 18 29 16 9 15 22 26 32 43
28 23 20 16 14 11 4 5 4 8 7 6 8 14 19 18 18 16 18 26 17 12 14 30 39 42 46 41 33 34 21 19 12 16 22 22 10 5 14 20 27 32 37 43
32 25 21 15 15 10 8 10 3 5 7 12 11 10 17 23 22 26 28 25 14 25 12 8 16 13 18 19 19 25 24 15 7 8 12 26 24 6 10 25 40 41 25 28
34 31 20 15 14 15 12 7 9 9 5 5 10 12 16 9 8 8 9 12 16 5 5 7 7 8 5 8 12 3 16 17 9 5 8 13 13 4 20 26 34 16 39 43
41 32 20 19 14 16 16 14 15 14 9 16 10 8 11 7 7 6 13 9 7 10 4 5 8 5 2 6 9 11 10 7 17 16 10 15 13 18 27 17 23 60 60 67
30 28 21 18 18 20 16 20 15 23 13 25 26 16 20 14 12 6 8 16 7 4 7 5 4 4 1 6 2 2 7 8 6 6 7 9 15 29 18 31 51 60 67 66
22 24 19 20 22 22 22 22 19 19 28 19 28 39 43 37 37 20 9 7 3 5 5 4 2 5 6 3 3 5 6 4 4 6 7 11 24 28 40 32 55 60 63 72
23 25 27 27 23 26 23 22 19 17 18 32 15 10 9 15 12 21 18 11 11 7 7 7 4 5 4 5 6 4 5 3 6 9 4 20 34 26 43 48 55 61 64 76
24 25 28 26 27 30 29 24 14 18 10 7 4 2 12 20 25 24 36 15 6 5 8 7 6 5 3 3 5 11 2 7 8 17 21 35 6 44 53 58 59 64 71 75
28 25 23 23 27 34 28 19 19 21 14 7 19 40 11 4 12 29 34 33 34 8 6 8 3 3 7 8 9 12 6 9 6 7 31 27 45 52 51 55 63 66 74 85
26 21 22 14 23 33 26 12 20 27 24 6 7 7 8 15 18 30 24 31 23 9 7 9 5 5 9 5 6 7 6 5 8 21 36 36 41 38 48 55 59 65 67 71
21 16 16 18 26 31 19 9 5 12 16 5 9 7 4 1 11 19 21 21 12 12 4 7 9 9 11 5 3 13 6 8 16 21 26 33 31 48 51 51 55 59 62 67
15 14 24 22 24 22 19 18 11 9 9 6 5 7 8 11 10 11 17 15 16 16 7 8 12 7 9 5 8 4 5 15 15 17 26 33 39 43 44 46 51 58 63 72
13 26 30 29 21 13 11 10 8 20 10 5 6 5 2 3 8 9 14 10 6 10 6 8 7 7 5 3 9 1 9 16 23 26 26 30 35 40 42 44 48 53 61 68
24 40 13 9 10 12 20 12 10 13 8 11 7 10 5 3 3 12 8 8 6 6 10 8 6 3 12 7 6 4 11 16 18 25 30 37 39 41 41 41 43 47 52 64
44 15 10 15 22 17 8 7 9 10 6 11 11 19 8 7 3 2 4 3 6 5 5 4 4 4 7 9 3 6 10 11 13 18 23 27 29 34 38 41 41 46 49 59
25 16 23 21 8 6 6 7 8 8 6 11 7 10 17 6 7 3 6 4 6 4 12 5 4 7 14 7 3 5 7 9 14 20 25 31 30 29 33 37 39 44 45 51
24 7 10 10 9 9 10 12 8 6 7 7 10 6 9 11 12 9 7 9 4 12 6 3 4 17 14 7 6 6 7 11 16 22 26 31 28 27 32 36 36 39 43 48
10 11 10 9 9 10 9 7 2 4 2 6 11 8 12 12 10 6 6 4 5 6 7 5 8 18 14 12 9 6 9 12 17 21 26 31 31 30 30 33 36 38 41 46
9 8 7 11 11 2 6 11 9 5 9 6 5 6 8 7 7 7 4 9 8 3 4 6 21 19 19 14 9 7 10 13 16 19 24 27 31 34 35 35 36 37 38 44
5 7 6 4 4 14 19 16 13 10 9 6 5 3 3 6 4 9 7 1 2 5 8 22 24 23 18 12 9 10 11 14 15 18 23 25 28 31 33 34 38 39 40 44
8 8 17 12 6 7 5 7 7 13 9 5 6 6 2 0 5 6 2 1 6 17 23 23 23 22 18 14 13 11 11 14 15 18 22 24 26 27 31 36 39 38 38 40
Wind_Direction_850mb
341 349 347 347 349 354 0 355 220 348 62 243 287 304 340 328 299 309 294 274 270 268 263 268 222 232 246 338 317 257 167 293 274 274 328 299 280 279 260 229 240 233 287 278
339 349 351 352 357 359 358 347 335 350 8 301 285 338 284 296 312 311 308 281 290 283 282 261 250 250 153 283 264 293 170 233 277 243 194 203 249 232 243 252 250 258 269 274
333 338 352 353 356 359 358 335 294 41 57 63 341 337 291 283 304 293 300 274 281 267 259 248 253 228 261 261 273 37 296 262 258 273 309 310 254 250 247 253 251 266 262 276
320 328 338 350 359 356 12 3 55 7 353 32 346 323 304 297 324 22 330 312 274 308 272 242 243 228 271 249 239 234 268 265 266 269 277 279 272 265 263 258 257 257 279 284
309 317 328 341 354 351 17 351 351 327 310 336 324 253 331 351 10 318 286 264 332 310 277 277 294 304 271 280 244 251 230 264 271 275 268 264 267 264 264 263 266 270 278 282
308 305 312 323 347 346 346 349 329 309 140 329 312 302 350 294 315 277 247 286 329 287 274 262 265 268 262 274 284 275 248 260 271 281 242 278 269 272 284 285 278 285 286 297
304 300 306 312 333 336 316 284 301 277 287 278 311 294 294 294 298 274 291 298 278 281 290 294 264 246 246 257 254 240 244 247 275 281 294 260 77 33 310 299 298 294 295 303
293 293 299 294 303 299 283 288 263 255 272 300 281 288 309 296 282 265 281 290 290 250 322 254 253 212 223 223 227 221 231 247 261 254 272 289 264 65 352 321 303 298 321 324
280 283 276 292 295 281 282 266 250 216 271 245 316 289 304 305 296 281 271 291 287 237 255 245 253 220 159 169 155 173 185 217 218 267 270 291 79 71 327 309 292 16 332 315
271 273 256 277 270 270 280 271 264 219 228 282 238 287 289 268 296 274 290 299 284 220 231 233 235 243 80 216 196 163 168 187 221 242 265 278 68 342 320 278 339 329 321 316
250 260 248 268 264 252 268 270 268 234 232 265 263 249 245 252 240 243 351 308 193 250 236 237 212 242 196 258 332 270 215 190 204 270 255 261 14 329 337 323 312 314 317 316
263 259 258 269 260 245 266 251 269 255 240 255 260 268 260 252 253 255 225 285 345 285 293 269 324 246 202 266 226 193 242 238 254 222 272 324 323 315 321 321 316 317 320 318
269 261 258 261 244 239 253 260 266 254 270 290 263 295 226 208 259 243 206 230 226 230 314 303 295 272 294 236 244 231 184 234 244 290 253 314 314 310 328 328 320 320 320 316
276 266 255 248 228 237 242 260 264 246 262 279 325 223 228 259 267 239 215 196 128 326 335 261 249 242 266 285 313 259 88 191 269 274 294 333 349 327 328 324 324 322 319 320
272 271 244 262 222 227 243 248 261 249 232 287 287 296 263 242 222 218 210 221 232 278 286 244 252 319 251 224 287 265 185 279 272 276 334 318 310 321 324 322 324 323 325 324
268 266 266 225 201 211 205 243 256 232 230 283 288 309 271 260 238 212 216 218 216 220 223 271 246 246 254 251 230 208 143 191 270 297 309 310 312 320 321 323 325 326 325 330
262 257 228 212 212 202 200 205 225 184 189 236 279 276 228 224 143 179 193 193 191 214 229 252 273 226 206 259 240 122 174 284 301 307 318 319 325 323 325 326 327 328 330 334
256 231 201 195 198 207 227 242 231 222 211 204 266 273 219 189 189 172 179 180 197 204 212 226 240 200 227 261 117 100 308 320 319 322 318 312 320 324 327 330 333 334 339 340
232 184 187 178 191 206 227 215 217 223 210 240 226 264 56 218 221 189 170 172 191 188 198 232 214 196 226 61 124 193 334 337 322 325 327 332 334 334 337 338 339 340 343 343
204 179 157 181 190 163 133 148 184 209 221 224 246 237 256 281 280 175 137 195 194 200 212 177 219 237 96 106 104 340 337 340 339 341 347 344 342 342 341 343 342 341 344 343
173 161 150 151 149 149 177 198 203 187 230 218 232 232 239 209 253 261 255 195 205 213 153 215 230 183 138 150 98 356 343 351 357 353 348 347 341 341 342 343 345 344 349 349
184 161 130 136 170 183 210 210 175 213 247 183 222 204 203 226 208 225 228 220 210 208 140 227 209 116 137 142 68 26 16 11 2 360 357 355 355 351 350 349 349 348 351 354
171 137 141 152 159 206 225 197 187 209 207 205 192 180 171 196 197 222 215 216 162 143 201 199 72 129 151 147 124 82 31 10 3 3 5 2 3 2 2 359 356 354 356 358
177 165 161 213 176 232 197 232 215 76 231 192 211 166 192 183 185 227 216 82 159 220 211 162 139 159 143 137 121 79 32 19 10 9 10 10 13 11 7 6 3 359 2 2
177 177 213 209 237 223 224 230 238 221 282 257 248 187 167 188 214 212 180 182 226 237 76 105 136 139 137 130 108 69 42 31 25 20 15 15 17 19 17 15 13 10 11 10
204 219 236 206 218 234 226 226 240 222 243 234 216 192 240 206 198 198 204 241 203 107 94 129 136 135 133 123 101 80 57 41 36 27 19 18 17 19 17 16 19 18 18 17
209 224 224 232 291 241 207 231 248 219 190 222 185 195 174 6 241 162 165 74 87 128 127 135 133 135 129 120 110 84 61 46 38 30 25 27 26 26 24 23 20 18 19 20